When you browse on this site, cookies collect data to enhance your experience and personalize the content and advertising you see.
Visit our Privacy Policy to learn more. By continuing to use the site, you agree to this use of cookies and data.
  • In Österreich
  • Länderverzeichnis
  • Für 7 Tage
  • Wassertemperatur
  • Satellitenkarten
  • Wetterkarte
  • News
  • Widgets
  • user-avatar
    Anmelden

    Stündliche Wetter Mingachevir

    Heute, 20 März, Mittwoch

    Zeit Temperatur Niederschläge Wind Luftdruck Luftfeuchtigkeit
    00:00 +8°C° 0.1 mm 2 m/S 757 mmHg 86%
    01:00 +8°C° 0.1 mm 2 m/S 757 mmHg 87%
    02:00 +7°C° 0.1 mm 2 m/S 757 mmHg 87%
    03:00 +7°C° 0 mm 2 m/S 756 mmHg 87%
    04:00 +7°C° 0.3 mm 2 m/S 756 mmHg 87%
    05:00 +7°C° 0.3 mm 2 m/S 756 mmHg 87%
    06:00 +7°C° 0.3 mm 2 m/S 756 mmHg 88%
    07:00 +7°C° 0.3 mm 2 m/S 756 mmHg 86%
    08:00 +7°C° 0.3 mm 3 m/S 756 mmHg 84%
    09:00 +8°C° 0 mm 3 m/S 756 mmHg 83%
    10:00 +7°C° 0.3 mm 4 m/S 756 mmHg 81%
    11:00 +8°C° 0.3 mm 4 m/S 756 mmHg 78%
    12:00 +8°C° 0.3 mm 4 m/S 756 mmHg 76%
    13:00 +8°C° 0.4 mm 4 m/S 755 mmHg 77%
    14:00 +8°C° 0.4 mm 4 m/S 755 mmHg 78%
    15:00 +8°C° 0.4 mm 4 m/S 755 mmHg 79%
    16:00 +8°C° 0.2 mm 4 m/S 755 mmHg 80%
    17:00 +9°C° 0.2 mm 3 m/S 755 mmHg 81%
    18:00 +9°C° 0.2 mm 3 m/S 755 mmHg 83%
    19:00 +9°C° 0.1 mm 3 m/S 756 mmHg 84%
    20:00 +9°C° 0.1 mm 3 m/S 756 mmHg 86%
    21:00 +8°C° 0.1 mm 3 m/S 756 mmHg 88%
    22:00 +8°C° 0.3 mm 3 m/S 756 mmHg 88%
    23:00 +8°C° 0.3 mm 3 m/S 756 mmHg 88%

    Morgen, 21 März, Donnerstag

    Zeit Temperatur Niederschläge Wind Luftdruck Luftfeuchtigkeit
    00:00 +8°C° 0.3 mm 3 m/S 756 mmHg 88%
    01:00 +7°C° 0.4 mm 3 m/S 756 mmHg 89%
    02:00 +7°C° 0.4 mm 2 m/S 756 mmHg 90%
    03:00 +7°C° 0.4 mm 2 m/S 756 mmHg 92%
    04:00 +7°C° 0.1 mm 2 m/S 756 mmHg 93%
    05:00 +7°C° 0.1 mm 1 m/S 756 mmHg 94%
    06:00 +7°C° 0.1 mm 1 m/S 756 mmHg 94%
    07:00 +8°C° 0 mm 1 m/S 756 mmHg 89%
    08:00 +9°C° 0 mm 1 m/S 756 mmHg 84%
    09:00 +9°C° 0 mm 2 m/S 756 mmHg 79%
    10:00 +10°C° 0 mm 2 m/S 756 mmHg 74%
    11:00 +12°C° 0 mm 2 m/S 756 mmHg 69%
    12:00 +12°C° 0 mm 3 m/S 755 mmHg 63%
    13:00 +13°C° 0 mm 3 m/S 755 mmHg 61%
    14:00 +14°C° 0 mm 3 m/S 755 mmHg 58%
    15:00 +14°C° 0 mm 3 m/S 754 mmHg 56%
    16:00 +14°C° 0 mm 3 m/S 754 mmHg 59%
    17:00 +13°C° 0 mm 3 m/S 754 mmHg 61%
    18:00 +13°C° 0 mm 3 m/S 754 mmHg 64%
    19:00 +12°C° 0 mm 3 m/S 755 mmHg 69%
    20:00 +11°C° 0 mm 3 m/S 755 mmHg 73%
    21:00 +10°C° 0 mm 3 m/S 755 mmHg 77%
    22:00 +10°C° 0 mm 2 m/S 755 mmHg 80%
    23:00 +9°C° 0 mm 2 m/S 755 mmHg 82%

    übermorgen, 22 März, Freitag

    Zeit Temperatur Niederschläge Wind Luftdruck Luftfeuchtigkeit
    00:00 +9°C° 0 mm 2 m/S 755 mmHg 85%
    01:00 +9°C° 0 mm 2 m/S 755 mmHg 86%
    02:00 +9°C° 0 mm 1 m/S 755 mmHg 88%
    03:00 +9°C° 0 mm 1 m/S 756 mmHg 90%
    04:00 +9°C° 0 mm 1 m/S 756 mmHg 91%
    05:00 +9°C° 0 mm 1 m/S 756 mmHg 91%
    06:00 +7°C° 0 mm 0 m/S 756 mmHg 92%
    07:00 +10°C° 0 mm 1 m/S 756 mmHg 86%
    08:00 +11°C° 0 mm 1 m/S 756 mmHg 79%
    09:00 +12°C° 0 mm 2 m/S 756 mmHg 72%
    10:00 +12°C° 0 mm 3 m/S 755 mmHg 64%
    11:00 +13°C° 0 mm 3 m/S 755 mmHg 55%
    12:00 +15°C° 0 mm 4 m/S 754 mmHg 46%
    13:00 +15°C° 0 mm 4 m/S 754 mmHg 43%
    14:00 +17°C° 0 mm 3 m/S 753 mmHg 39%
    15:00 +17°C° 0 mm 3 m/S 753 mmHg 35%
    16:00 +17°C° 0 mm 3 m/S 753 mmHg 37%
    17:00 +16°C° 0 mm 2 m/S 753 mmHg 38%
    18:00 +15°C° 0 mm 2 m/S 753 mmHg 40%
    19:00 +15°C° 0.1 mm 2 m/S 754 mmHg 42%
    20:00 +13°C° 0.1 mm 3 m/S 754 mmHg 44%
    21:00 +13°C° 0.1 mm 3 m/S 755 mmHg 46%
    22:00 +12°C° 0.2 mm 4 m/S 755 mmHg 47%
    23:00 +10°C° 0.2 mm 6 m/S 755 mmHg 48%

    23 März, Samstag

    Zeit Temperatur Niederschläge Wind Luftdruck Luftfeuchtigkeit
    00:00 +10°C° 0.2 mm 7 m/S 756 mmHg 49%
    01:00 +9°C° 0.2 mm 7 m/S 756 mmHg 51%
    02:00 +8°C° 0.2 mm 6 m/S 756 mmHg 53%
    03:00 +8°C° 0.2 mm 6 m/S 756 mmHg 55%
    04:00 +8°C° 0 mm 6 m/S 757 mmHg 54%
    05:00 +8°C° 0 mm 5 m/S 757 mmHg 53%
    06:00 +7°C° 0 mm 5 m/S 757 mmHg 52%
    07:00 +8°C° 0 mm 4 m/S 757 mmHg 49%
    08:00 +10°C° 0 mm 4 m/S 757 mmHg 46%
    09:00 +11°C° 0 mm 4 m/S 757 mmHg 43%
    10:00 +11°C° 0 mm 4 m/S 756 mmHg 41%
    11:00 +12°C° 0 mm 3 m/S 755 mmHg 39%
    12:00 +13°C° 0 mm 3 m/S 755 mmHg 37%
    13:00 +13°C° 0 mm 3 m/S 754 mmHg 36%
    14:00 +14°C° 0 mm 3 m/S 753 mmHg 35%
    15:00 +14°C° 0 mm 3 m/S 752 mmHg 34%
    16:00 +14°C° 0 mm 2 m/S 752 mmHg 37%
    17:00 +14°C° 0 mm 2 m/S 752 mmHg 39%
    18:00 +13°C° 0 mm 1 m/S 752 mmHg 42%
    19:00 +13°C° 0 mm 2 m/S 752 mmHg 41%
    20:00 +11°C° 0 mm 3 m/S 752 mmHg 41%
    21:00 +10°C° 0 mm 4 m/S 752 mmHg 40%
    22:00 +9°C° 0 mm 5 m/S 752 mmHg 41%
    23:00 +8°C° 0 mm 5 m/S 752 mmHg 42%

    24 März, Sonntag

    Zeit Temperatur Niederschläge Wind Luftdruck Luftfeuchtigkeit
    00:00 +8°C° 0 mm 6 m/S 752 mmHg 43%
    01:00 +7°C° 0 mm 6 m/S 752 mmHg 46%
    02:00 +7°C° 0 mm 6 m/S 753 mmHg 49%
    03:00 +7°C° 0 mm 6 m/S 753 mmHg 51%
    04:00 +7°C° 0 mm 6 m/S 753 mmHg 52%
    05:00 +7°C° 0 mm 5 m/S 754 mmHg 52%
    06:00 +7°C° 0 mm 4 m/S 754 mmHg 53%
    07:00 +8°C° 0 mm 5 m/S 755 mmHg 47%
    08:00 +10°C° 0 mm 6 m/S 755 mmHg 41%
    09:00 +11°C° 0 mm 7 m/S 755 mmHg 35%
    10:00 +12°C° 0 mm 7 m/S 755 mmHg 32%
    11:00 +14°C° 0 mm 7 m/S 755 mmHg 30%
    12:00 +15°C° 0 mm 6 m/S 754 mmHg 28%
    13:00 +15°C° 0 mm 5 m/S 754 mmHg 28%
    14:00 +17°C° 0 mm 4 m/S 753 mmHg 27%
    15:00 +17°C° 0 mm 4 m/S 753 mmHg 27%
    16:00 +16°C° 0 mm 3 m/S 753 mmHg 31%
    17:00 +14°C° 0 mm 3 m/S 753 mmHg 36%
    18:00 +14°C° 0 mm 3 m/S 753 mmHg 41%
    19:00 +13°C° 0 mm 3 m/S 754 mmHg 43%
    20:00 +13°C° 0 mm 2 m/S 754 mmHg 45%
    21:00 +12°C° 0 mm 2 m/S 755 mmHg 48%
    22:00 +10°C° 0 mm 2 m/S 755 mmHg 53%
    23:00 +9°C° 0 mm 2 m/S 755 mmHg 59%

    25 März, Montag

    Zeit Temperatur Niederschläge Wind Luftdruck Luftfeuchtigkeit
    00:00 +9°C° 0 mm 1 m/S 754 mmHg 65%
    01:00 +9°C° 0 mm 1 m/S 754 mmHg 64%
    02:00 +8°C° 0 mm 1 m/S 754 mmHg 63%
    03:00 +8°C° 0 mm 1 m/S 754 mmHg 62%
    04:00 +7°C° 0 mm 2 m/S 754 mmHg 60%
    05:00 +7°C° 0 mm 2 m/S 754 mmHg 57%
    06:00 +7°C° 0 mm 2 m/S 754 mmHg 55%
    07:00 +8°C° 0 mm 2 m/S 754 mmHg 50%
    08:00 +10°C° 0 mm 2 m/S 754 mmHg 46%
    09:00 +12°C° 0 mm 3 m/S 754 mmHg 41%
    10:00 +14°C° 0 mm 2 m/S 753 mmHg 39%
    11:00 +15°C° 0 mm 2 m/S 753 mmHg 37%
    12:00 +16°C° 0 mm 2 m/S 753 mmHg 34%
    13:00 +17°C° 0 mm 2 m/S 753 mmHg 33%
    14:00 +17°C° 0 mm 2 m/S 753 mmHg 32%
    15:00 +18°C° 0 mm 2 m/S 752 mmHg 31%
    16:00 +17°C° 0 mm 2 m/S 753 mmHg 34%
    17:00 +17°C° 0 mm 3 m/S 753 mmHg 37%
    18:00 +16°C° 0 mm 3 m/S 754 mmHg 39%
    19:00 +14°C° 0 mm 4 m/S 755 mmHg 47%
    20:00 +11°C° 0 mm 6 m/S 755 mmHg 55%
    21:00 +10°C° 0 mm 7 m/S 756 mmHg 63%
    22:00 +10°C° 0 mm 6 m/S 756 mmHg 66%
    23:00 +9°C° 0 mm 5 m/S 757 mmHg 69%
    Mehr zeigen